Vorticity
-2 -2 1 6 17 25 27 17 8 3 1 1 1 4 9 15 10 6 1 -3 -6 -4 -3 -6 -7 -6 -5 -3 -4 -3 -2 1 3 4 5 5 4 4 3 4 5 5 4 2 1 2 2 1 1 1 1 3 5 6 6 6 6 6 7 7 8 9 10 10 11 12 12 12 12
-1 -2 -2 -1 5 14 23 26 19 11 4 1 -0 1 7 15 13 7 1 -4 -9 -9 -7 -8 -8 -7 -7 -7 -6 -5 -4 -2 -0 2 3 4 4 3 3 3 5 6 6 5 4 3 2 1 0 0 0 1 2 3 4 5 5 6 6 6 7 8 8 9 10 11 11 12 12
1 -2 -3 -4 -2 2 9 19 23 20 13 5 0 -1 2 9 12 9 4 -4 -10 -12 -10 -7 -6 -5 -5 -6 -8 -8 -7 -6 -4 -3 -1 1 2 2 1 2 3 5 6 7 7 6 5 3 2 1 1 1 0 0 1 3 4 4 5 6 7 7 7 7 9 9 10 10 11
4 2 -1 -2 -3 -2 0 6 14 20 21 16 8 3 1 3 8 8 5 -3 -10 -13 -12 -9 -6 -4 -4 -4 -5 -6 -7 -6 -6 -6 -5 -3 -2 -1 -0 -0 0 2 4 6 7 7 7 5 4 3 3 3 1 -0 -1 1 2 2 3 5 6 6 6 6 7 7 8 8 9
9 7 4 2 0 -1 -2 -2 3 10 17 22 21 16 11 7 5 3 -1 -7 -12 -13 -12 -12 -10 -8 -5 -4 -3 -2 -2 -2 -4 -5 -6 -6 -5 -3 -2 -2 -2 -1 1 3 5 6 7 6 5 4 3 3 2 1 -0 0 -0 0 1 3 4 4 5 5 5 6 6 7 8
13 10 8 6 4 2 -1 -2 -1 1 6 13 21 24 23 16 3 -6 -11 -10 -6 -3 -1 1 -0 -2 -3 -3 -0 3 5 5 3 0 -2 -5 -5 -5 -4 -4 -2 -1 -1 0 1 3 4 5 4 4 4 4 3 2 2 0 0 0 1 1 1 2 3 3 4 5 5 6 7
14 12 10 8 6 4 2 -0 -1 -1 -0 3 9 14 18 16 4 -6 -10 -4 4 12 19 25 25 21 14 8 7 10 13 15 12 9 5 0 -3 -4 -5 -5 -3 -2 -1 -1 -1 0 1 1 2 3 3 4 4 3 2 0 1 1 2 2 0 0 1 1 2 3 4 5 6
16 14 12 10 8 6 4 2 0 -0 -1 -0 1 3 4 6 4 2 2 5 12 17 20 20 21 21 21 20 18 19 20 21 19 15 11 7 3 0 -2 -4 -4 -4 -3 -2 -2 -2 -2 -1 -0 1 2 3 3 3 3 1 1 1 2 3 1 1 0 1 1 2 3 5 6
17 16 14 13 11 9 7 5 3 2 2 1 1 0 0 1 4 6 8 11 11 10 8 5 4 5 8 12 15 17 18 19 18 16 15 12 9 6 3 -0 -3 -4 -5 -5 -4 -4 -3 -3 -2 -1 0 2 2 3 3 2 1 1 2 2 2 2 1 1 1 2 4 6 6
17 17 16 15 14 12 10 9 7 6 5 4 4 4 4 3 5 6 7 7 5 4 3 2 1 0 1 2 4 6 8 10 11 11 11 11 10 8 6 3 0 -2 -4 -5 -5 -4 -4 -4 -4 -2 -1 0 2 2 2 2 1 1 2 2 2 2 2 2 2 4 5 6 5
16 16 17 16 16 15 14 13 11 10 8 8 8 7 7 6 6 6 5 4 4 4 4 4 4 3 2 1 1 1 2 3 4 5 6 7 7 7 7 6 4 2 -0 -2 -3 -4 -4 -5 -4 -3 -1 -0 1 2 2 1 1 2 2 3 2 3 3 3 4 5 5 5 5
14 15 15 15 16 16 16 15 15 14 12 11 11 10 9 8 8 7 7 6 6 6 6 6 6 6 5 4 4 3 3 3 3 4 5 5 6 7 7 8 7 6 4 2 0 -1 -3 -3 -3 -2 -1 0 1 2 3 2 2 3 4 4 4 4 4 5 5 6 7 7 6
13 13 14 14 14 14 14 14 15 15 15 14 14 13 13 12 12 11 11 9 8 8 8 8 8 8 7 7 6 6 5 5 5 6 6 7 7 8 8 9 10 10 9 8 5 3 2 1 1 0 1 2 3 3 3 3 4 4 4 5 4 5 5 6 7 7 6 6 4
11 12 12 12 13 13 13 13 13 14 14 14 15 16 16 15 16 16 14 11 9 9 9 10 10 9 9 9 9 8 8 8 8 9 9 9 10 10 10 11 12 13 13 13 11 9 8 7 6 5 4 4 5 5 5 5 5 5 5 5 5 6 8 9 9 7 5 3 1
10 10 10 11 11 11 11 11 12 12 12 13 15 15 15 15 15 14 12 10 8 9 10 11 10 9 10 10 10 10 10 10 11 12 12 12 12 12 12 12 13 14 16 17 16 15 13 12 12 11 9 8 8 8 7 7 7 6 6 6 8 9 10 10 10 9 7 5 3
9 9 9 10 10 10 10 11 11 12 12 13 14 13 12 12 11 10 9 8 7 9 11 12 10 9 10 11 11 11 11 12 12 13 13 13 12 12 12 13 13 14 16 17 18 18 17 17 16 15 14 13 11 10 9 9 8 8 8 9 9 8 8 9 10 9 8 7 7
9 9 9 8 9 9 10 11 11 12 12 12 12 11 11 10 8 8 8 9 8 9 10 11 9 9 10 11 11 11 11 11 12 12 12 12 11 11 11 11 12 13 14 15 16 17 18 18 17 17 16 15 13 12 11 10 9 9 9 10 9 7 5 5 7 8 8 8 8
10 9 8 8 8 8 9 10 10 10 10 9 9 9 8 7 8 9 10 10 10 10 10 9 9 9 10 10 11 11 11 11 11 10 10 10 10 10 10 10 10 11 12 12 13 14 14 15 15 15 15 15 14 12 11 10 10 10 10 11 10 8 5 4 5 6 7 7 8
10 10 9 8 8 7 7 7 7 8 7 7 6 6 6 6 8 9 11 12 12 12 11 9 9 9 10 10 10 10 10 10 9 9 9 9 9 9 9 10 10 10 10 11 11 11 11 12 12 13 13 13 12 11 11 10 10 10 10 10 10 10 8 7 5 4 4 4 6
10 10 9 9 8 8 7 7 7 8 8 7 7 6 6 7 7 8 9 11 12 12 11 10 9 10 10 11 10 9 9 8 7 7 7 7 8 8 9 9 10 10 10 10 10 10 10 10 10 11 11 12 11 11 10 10 10 10 10 10 10 11 11 10 6 3 1 2 3
10 9 9 9 9 9 9 9 9 9 10 10 10 9 9 8 8 8 9 9 9 8 8 8 9 10 11 11 10 9 7 6 5 5 5 5 6 6 7 8 9 9 10 10 10 10 10 10 10 10 10 11 11 11 11 11 11 11 11 11 13 14 14 13 8 5 2 2 3
10 10 9 9 9 10 10 10 10 11 11 12 12 12 12 12 11 11 11 11 9 7 5 4 8 10 12 12 10 8 6 5 4 3 3 4 5 5 6 7 8 9 9 10 10 10 10 10 10 10 10 11 11 11 11 11 12 13 14 15 16 16 14 11 8 6 5 6 9
11 11 11 11 11 11 11 11 11 11 12 12 13 13 13 13 13 13 13 14 13 10 7 5 8 11 12 12 10 8 6 4 4 3 3 3 4 5 6 7 8 8 9 9 10 10 10 11 11 11 11 11 11 11 11 11 12 14 16 17 15 12 9 7 6 7 10 13 17
12 12 12 12 12 12 12 12 12 13 13 13 13 13 13 12 13 13 14 15 16 15 14 11 10 11 12 12 10 7 5 4 3 3 3 4 4 5 6 7 8 8 8 9 9 9 10 11 12 12 13 12 12 12 12 12 14 16 18 17 12 8 6 7 11 15 19 22 22
12 13 13 13 13 13 13 13 13 13 13 13 13 12 12 12 13 13 14 15 17 18 17 15 11 10 10 11 9 7 5 4 3 3 4 5 5 6 7 7 8 8 8 8 9 9 9 10 12 13 14 14 14 14 14 15 16 17 18 18 15 13 13 16 22 26 27 24 18
13 13 13 13 13 13 13 13 13 13 13 13 12 12 12 11 12 12 13 14 15 16 16 15 12 10 10 10 9 8 6 5 5 5 5 6 6 7 7 8 8 8 8 8 9 9 9 10 12 13 14 14 14 15 15 16 16 16 17 18 19 19 19 20 22 23 22 17 12
13 13 13 13 13 13 13 13 13 13 13 13 12 12 11 11 10 10 10 10 11 11 12 12 11 11 10 10 9 7 6 5 5 5 6 6 7 7 8 8 8 8 8 8 8 9 10 11 12 13 14 15 15 16 16 15 15 14 14 16 20 21 18 12 8 9 12 12 11
10 11 11 12 12 12 12 13 13 13 13 13 13 13 13 12 11 10 9 8 8 8 8 9 9 9 8 8 7 6 5 5 5 5 5 6 6 7 7 8 8 8 8 9 9 9 10 11 12 13 14 15 16 17 17 15 14 14 15 18 20 20 17 8 -3 -7 -4 4 9
5 6 6 7 8 9 10 11 11 12 13 13 14 14 14 14 13 12 11 11 10 9 8 7 7 7 7 6 6 5 5 5 5 5 6 6 6 7 7 8 8 9 9 9 9 10 11 12 13 13 14 16 17 18 18 16 14 15 17 20 19 18 15 10 -1 -9 -12 -7 1
2 2 3 3 5 6 8 9 9 10 11 12 12 12 13 13 14 14 13 13 12 11 10 10 9 8 7 7 7 6 6 6 6 6 6 7 7 7 8 9 9 9 10 10 10 11 12 12 13 14 15 17 19 20 18 14 10 8 7 8 10 12 15 15 11 6 1 0 3
4 4 5 5 6 7 8 8 8 9 9 9 9 9 10 10 11 11 12 12 12 12 12 12 11 10 10 10 9 9 9 9 8 8 8 8 9 9 10 10 10 10 10 11 11 12 13 13 14 15 16 18 20 20 17 10 3 -2 -5 -4 1 8 14 18 19 18 16 14 14
11 11 10 10 10 9 9 8 7 7 7 6 6 7 7 7 8 8 9 10 11 11 12 12 12 12 12 12 12 12 11 11 11 11 11 11 11 11 12 11 12 12 12 12 12 13 13 14 15 15 16 17 17 17 15 9 2 -2 -3 1 6 10 14 16 16 16 17 17 17
16 15 14 13 11 10 9 8 7 6 6 6 7 7 8 8 8 9 9 9 10 10 11 11 12 13 13 14 14 14 14 14 14 14 13 13 13 13 13 13 13 13 13 13 13 13 14 14 14 15 15 14 14 13 12 9 7 7 9 11 12 12 11 9 9 10 12 14 15
18 17 15 14 12 11 10 9 9 9 10 11 12 13 13 13 12 12 12 11 11 12 12 12 13 14 14 15 15 15 15 15 16 16 15 15 15 15 15 14 14 14 13 13 14 14 14 14 14 13 13 12 11 11 11 11 13 14 15 14 12 9 6 4 4 6 10 13 15
18 18 17 15 14 13 12 12 13 14 16 17 19 20 20 20 19 18 17 16 16 15 15 15 15 15 15 15 16 16 16 16 16 16 16 16 16 16 15 15 14 14 13 13 14 15 15 14 13 12 11 11 12 13 14 16 17 17 15 11 8 7 6 5 5 8 10 12 12
17 17 17 17 16 16 16 16 17 18 19 21 22 22 23 23 23 22 21 19 19 18 18 18 17 17 16 16 16 16 16 16 16 16 16 16 16 15 15 15 14 13 13 14 15 15 14 12 11 10 10 12 14 17 19 21 20 18 13 7 5 6 8 7 8 9 10 10 9
14 15 16 16 17 17 18 18 19 20 21 21 21 21 21 21 21 21 21 20 20 20 19 18 18 18 17 16 16 15 15 14 14 14 14 14 14 14 14 14 13 13 14 15 15 15 13 10 8 8 10 13 17 20 22 23 21 16 10 2 2 4 6 6 7 8 9 9 7
13 13 14 15 15 16 16 17 17 18 19 19 20 20 19 19 18 18 19 20 20 20 20 21 21 20 19 17 16 15 14 13 13 12 12 13 13 13 13 13 13 14 15 15 15 14 12 8 6 6 9 14 18 20 21 19 15 10 4 0 3 5 6 6 7 8 9 8 8
12 12 12 12 12 11 10 10 9 10 11 13 15 17 18 18 18 17 18 19 20 20 21 22 24 24 24 23 21 19 17 16 15 13 13 12 12 12 12 13 14 15 16 16 15 13 10 7 5 6 8 12 14 15 13 10 6 3 1 3 6 9 10 10 10 9 9 8 8
13 12 11 9 8 6 4 3 2 1 2 4 8 12 15 16 16 16 16 15 15 15 15 17 20 23 26 27 27 26 25 24 22 20 17 15 14 13 13 13 15 16 17 16 14 11 8 5 5 7 9 11 11 9 6 3 1 1 3 7 10 11 12 11 11 10 9 8 8
16 14 11 9 6 4 3 1 1 0 0 1 5 8 10 12 12 11 10 8 6 6 6 8 12 16 21 25 27 29 30 30 29 27 24 21 18 15 14 13 15 16 16 15 12 9 5 4 6 10 12 13 10 6 2 -0 -0 2 5 8 9 10 10 10 9 9 8 8 8
Height
3049 3050 3051 3052 3053 3054 3055 3056 3057 3059 3060 3061 3062 3063 3064 3066 3068 3070 3072 3074 3075 3077 3078 3079 3080 3080 3081 3080 3080 3079 3079 3080 3081 3082 3083 3084 3084 3085 3086 3086 3087 3088 3088 3089 3090 3090 3091 3092 3093 3094 3094 3094 3095 3095 3095 3096 3096 3097 3097 3098 3098 3099 3099 3099 3100 3100 3101 3101 3101
3047 3048 3049 3050 3051 3052 3052 3053 3054 3055 3057 3058 3059 3061 3062 3064 3067 3069 3071 3073 3074 3075 3076 3078 3078 3079 3079 3080 3080 3079 3079 3079 3080 3080 3081 3082 3083 3083 3084 3084 3085 3086 3087 3088 3088 3089 3090 3091 3091 3092 3093 3093 3094 3094 3094 3094 3095 3095 3095 3096 3096 3097 3097 3098 3098 3099 3099 3099 3100
3044 3045 3046 3047 3048 3049 3049 3050 3051 3053 3054 3055 3057 3059 3060 3062 3065 3067 3069 3071 3072 3073 3074 3075 3076 3077 3078 3079 3079 3079 3079 3079 3079 3079 3080 3080 3081 3082 3082 3083 3084 3084 3085 3086 3087 3088 3088 3089 3090 3091 3091 3092 3092 3093 3094 3094 3094 3094 3094 3094 3095 3095 3096 3096 3097 3097 3098 3098 3098
3041 3042 3043 3044 3045 3046 3047 3048 3049 3050 3051 3053 3054 3056 3058 3060 3062 3065 3067 3069 3070 3070 3071 3072 3074 3075 3076 3077 3078 3079 3079 3079 3079 3079 3079 3079 3079 3080 3080 3081 3082 3083 3083 3084 3085 3086 3087 3088 3089 3089 3090 3090 3091 3091 3091 3092 3092 3092 3093 3093 3093 3094 3094 3094 3095 3095 3096 3096 3096
3039 3040 3041 3042 3043 3044 3045 3046 3047 3049 3050 3051 3053 3054 3056 3058 3060 3063 3065 3066 3067 3068 3069 3070 3071 3072 3074 3075 3076 3077 3077 3078 3079 3079 3079 3078 3079 3079 3079 3080 3080 3081 3082 3083 3084 3084 3085 3086 3087 3088 3088 3089 3089 3090 3090 3090 3090 3091 3091 3091 3092 3092 3092 3092 3093 3093 3094 3094 3094
3037 3038 3039 3040 3041 3042 3043 3044 3045 3047 3048 3050 3052 3053 3055 3057 3059 3061 3062 3064 3064 3065 3066 3067 3068 3069 3070 3072 3073 3074 3075 3076 3076 3077 3077 3077 3077 3077 3078 3078 3079 3079 3080 3081 3082 3083 3084 3084 3085 3086 3086 3087 3088 3088 3088 3089 3089 3089 3089 3089 3090 3090 3090 3091 3091 3091 3092 3092 3092
3034 3036 3037 3038 3039 3040 3041 3042 3044 3045 3047 3048 3050 3052 3054 3055 3057 3059 3060 3061 3062 3063 3064 3064 3065 3066 3067 3068 3069 3071 3072 3073 3074 3074 3074 3074 3075 3075 3076 3076 3077 3078 3079 3079 3080 3081 3082 3083 3084 3084 3084 3085 3086 3086 3087 3087 3087 3088 3088 3088 3088 3089 3089 3089 3089 3089 3090 3090 3090
3033 3034 3035 3036 3037 3038 3039 3040 3042 3043 3045 3046 3048 3050 3051 3053 3055 3056 3057 3058 3059 3060 3061 3061 3062 3063 3064 3065 3066 3068 3069 3069 3070 3071 3071 3072 3072 3073 3074 3074 3075 3076 3077 3078 3078 3079 3080 3081 3081 3082 3083 3083 3084 3084 3085 3085 3086 3086 3086 3087 3087 3087 3087 3087 3088 3088 3088 3088 3088
3030 3032 3033 3034 3035 3036 3038 3039 3040 3042 3043 3044 3046 3047 3049 3050 3052 3053 3054 3054 3055 3057 3058 3059 3059 3060 3061 3063 3063 3064 3065 3066 3067 3068 3069 3069 3069 3070 3071 3072 3073 3074 3075 3076 3076 3077 3078 3079 3079 3080 3080 3081 3081 3082 3083 3084 3084 3084 3084 3084 3085 3085 3085 3085 3086 3086 3086 3086 3086
3028 3030 3031 3032 3034 3035 3036 3037 3039 3040 3041 3043 3044 3045 3047 3048 3049 3050 3050 3052 3053 3054 3055 3056 3057 3058 3059 3060 3061 3062 3062 3063 3064 3065 3065 3066 3067 3067 3068 3069 3070 3072 3073 3073 3074 3075 3075 3076 3077 3078 3078 3079 3079 3080 3080 3081 3081 3082 3082 3082 3083 3083 3083 3084 3084 3084 3084 3084 3084
3026 3028 3029 3030 3032 3033 3034 3036 3037 3038 3039 3041 3042 3043 3044 3046 3047 3048 3049 3049 3051 3052 3053 3054 3055 3056 3057 3058 3059 3059 3060 3061 3061 3062 3063 3063 3064 3064 3065 3067 3068 3069 3070 3071 3072 3072 3073 3074 3074 3075 3076 3076 3077 3078 3078 3079 3079 3079 3080 3080 3080 3081 3081 3081 3082 3082 3082 3082 3082
3025 3026 3027 3028 3029 3031 3032 3033 3035 3036 3038 3039 3040 3041 3043 3044 3045 3046 3047 3048 3049 3050 3051 3052 3053 3054 3055 3055 3056 3057 3057 3058 3059 3059 3060 3060 3061 3062 3063 3064 3065 3066 3067 3068 3069 3070 3071 3071 3072 3073 3073 3074 3074 3075 3075 3076 3077 3077 3077 3078 3078 3079 3079 3079 3079 3080 3080 3080 3080
3024 3024 3025 3026 3028 3029 3030 3031 3032 3034 3035 3036 3038 3039 3040 3042 3043 3044 3045 3047 3047 3048 3049 3050 3051 3052 3053 3053 3054 3054 3055 3055 3056 3057 3057 3058 3059 3059 3060 3062 3063 3064 3064 3065 3066 3067 3068 3069 3069 3070 3070 3071 3072 3072 3073 3074 3074 3074 3074 3075 3076 3076 3076 3077 3077 3077 3078 3078 3078
3023 3023 3024 3025 3026 3027 3028 3029 3030 3032 3033 3034 3035 3037 3038 3039 3041 3042 3043 3044 3045 3046 3047 3048 3049 3049 3050 3051 3051 3052 3052 3053 3054 3054 3055 3055 3056 3057 3058 3059 3060 3061 3062 3063 3064 3064 3065 3066 3066 3067 3068 3068 3069 3069 3070 3071 3071 3072 3072 3073 3073 3074 3074 3074 3074 3075 3075 3075 3076
3021 3022 3023 3024 3025 3026 3027 3028 3029 3030 3031 3032 3034 3035 3037 3038 3039 3039 3041 3042 3043 3044 3045 3046 3046 3047 3048 3049 3049 3049 3050 3051 3051 3052 3053 3053 3054 3055 3056 3057 3057 3058 3059 3060 3061 3061 3062 3063 3064 3064 3065 3065 3066 3067 3067 3068 3069 3069 3069 3070 3071 3071 3071 3071 3072 3072 3072 3073 3073
3021 3021 3022 3023 3024 3025 3026 3027 3028 3029 3030 3031 3033 3034 3035 3036 3037 3038 3039 3039 3040 3042 3043 3044 3044 3045 3046 3046 3047 3047 3048 3049 3049 3050 3050 3051 3052 3053 3054 3054 3055 3056 3057 3057 3058 3059 3059 3060 3061 3061 3062 3063 3063 3064 3064 3065 3066 3066 3066 3067 3068 3069 3069 3069 3069 3069 3069 3070 3071
3020 3021 3022 3022 3023 3024 3025 3026 3027 3028 3029 3030 3031 3032 3033 3034 3035 3036 3037 3038 3039 3040 3041 3041 3042 3043 3044 3044 3045 3045 3046 3047 3047 3048 3048 3049 3050 3050 3051 3052 3053 3054 3054 3055 3055 3056 3057 3057 3058 3059 3059 3060 3061 3061 3062 3062 3063 3063 3064 3064 3065 3065 3066 3066 3066 3066 3067 3068 3069
3019 3020 3021 3022 3023 3024 3024 3025 3027 3027 3028 3029 3030 3031 3031 3032 3033 3034 3035 3036 3037 3038 3039 3039 3040 3041 3042 3042 3043 3044 3044 3045 3045 3046 3046 3047 3048 3049 3049 3050 3051 3051 3052 3053 3053 3054 3054 3055 3055 3056 3057 3057 3058 3059 3059 3060 3060 3061 3061 3062 3062 3062 3062 3063 3064 3064 3065 3065 3066
3018 3019 3020 3021 3022 3023 3024 3024 3025 3026 3027 3028 3028 3029 3030 3031 3032 3032 3033 3034 3035 3036 3037 3038 3039 3039 3040 3040 3041 3042 3042 3043 3044 3044 3044 3045 3046 3046 3047 3048 3049 3049 3050 3051 3051 3051 3052 3053 3053 3054 3054 3055 3055 3056 3057 3057 3058 3058 3058 3059 3059 3059 3060 3060 3061 3062 3063 3063 3063
3017 3018 3019 3019 3020 3021 3022 3023 3024 3024 3025 3026 3027 3028 3029 3029 3030 3031 3032 3033 3033 3034 3035 3036 3037 3038 3038 3039 3039 3040 3040 3041 3042 3042 3043 3043 3044 3044 3045 3046 3047 3048 3048 3049 3049 3049 3050 3050 3051 3051 3052 3053 3053 3054 3054 3055 3055 3055 3056 3056 3056 3057 3057 3058 3059 3059 3060 3060 3061
3016 3017 3018 3018 3019 3020 3021 3022 3022 3023 3024 3025 3026 3026 3027 3028 3029 3029 3030 3031 3032 3033 3034 3035 3035 3036 3036 3037 3038 3038 3039 3039 3040 3040 3041 3041 3042 3043 3043 3044 3045 3046 3046 3047 3047 3048 3048 3049 3049 3049 3050 3050 3051 3051 3052 3052 3053 3053 3053 3053 3054 3054 3055 3056 3057 3057 3058 3058 3059
3014 3015 3016 3017 3018 3019 3019 3020 3021 3022 3023 3024 3024 3025 3026 3027 3027 3028 3029 3029 3030 3031 3032 3033 3034 3034 3034 3035 3036 3036 3037 3038 3038 3039 3039 3039 3040 3041 3041 3042 3043 3044 3044 3045 3045 3046 3046 3047 3047 3047 3048 3048 3049 3049 3049 3050 3050 3050 3051 3051 3052 3052 3053 3054 3054 3055 3055 3056 3056
3014 3014 3015 3016 3016 3017 3018 3019 3019 3020 3021 3022 3023 3024 3024 3025 3026 3027 3027 3028 3029 3029 3030 3031 3031 3032 3033 3033 3034 3035 3035 3036 3036 3037 3037 3038 3038 3039 3040 3041 3041 3042 3043 3043 3044 3044 3044 3045 3045 3045 3046 3046 3046 3047 3047 3048 3048 3048 3049 3049 3050 3050 3051 3052 3052 3053 3053 3054 3054
3013 3013 3014 3014 3015 3016 3016 3017 3018 3019 3019 3020 3021 3022 3023 3023 3024 3025 3026 3026 3027 3028 3028 3029 3029 3030 3031 3031 3032 3033 3034 3034 3034 3035 3035 3036 3037 3037 3038 3039 3039 3040 3040 3041 3041 3042 3042 3043 3043 3043 3044 3044 3044 3044 3045 3045 3046 3046 3047 3047 3048 3048 3049 3049 3050 3050 3051 3051 3051
3011 3012 3013 3013 3014 3014 3015 3016 3016 3017 3018 3019 3019 3020 3021 3021 3022 3023 3024 3025 3025 3026 3027 3027 3028 3029 3029 3030 3030 3031 3032 3032 3033 3033 3034 3034 3035 3036 3036 3037 3038 3038 3038 3039 3039 3039 3040 3040 3041 3041 3041 3042 3042 3042 3043 3043 3044 3044 3044 3045 3045 3046 3046 3047 3047 3048 3048 3049 3049
3010 3011 3011 3012 3013 3013 3014 3014 3015 3016 3016 3017 3018 3019 3019 3020 3021 3022 3022 3023 3024 3024 3025 3025 3026 3027 3027 3028 3029 3029 3030 3030 3031 3031 3032 3033 3033 3034 3034 3035 3035 3036 3036 3036 3037 3037 3038 3038 3038 3039 3039 3039 3039 3040 3040 3041 3041 3042 3042 3043 3043 3044 3044 3045 3046 3046 3047 3047 3046
3009 3009 3010 3011 3011 3012 3012 3013 3014 3014 3015 3015 3016 3017 3018 3018 3019 3020 3020 3021 3022 3023 3023 3024 3024 3025 3025 3026 3027 3027 3028 3029 3029 3029 3030 3030 3031 3032 3032 3033 3033 3033 3034 3034 3034 3035 3035 3035 3036 3036 3036 3037 3037 3038 3038 3039 3039 3039 3040 3040 3041 3041 3042 3043 3044 3044 3043 3043 3044
3008 3009 3009 3010 3010 3011 3011 3012 3012 3013 3014 3014 3015 3015 3016 3017 3018 3018 3019 3019 3020 3021 3021 3022 3023 3023 3024 3024 3025 3025 3026 3026 3027 3028 3028 3029 3029 3029 3030 3030 3031 3031 3031 3032 3032 3032 3033 3033 3033 3034 3034 3034 3034 3035 3035 3036 3037 3037 3038 3038 3039 3039 3040 3041 3041 3041 3041 3041 3042
3007 3008 3008 3009 3009 3009 3010 3011 3011 3012 3012 3013 3013 3014 3014 3015 3016 3016 3017 3018 3018 3019 3019 3020 3020 3021 3022 3022 3023 3023 3024 3024 3025 3025 3026 3026 3027 3027 3027 3028 3028 3029 3029 3029 3030 3030 3030 3031 3031 3031 3032 3032 3032 3033 3034 3034 3035 3035 3036 3036 3036 3037 3038 3039 3039 3039 3039 3039 3040
3006 3006 3007 3007 3008 3008 3009 3009 3010 3010 3011 3011 3012 3013 3013 3014 3014 3015 3015 3016 3016 3017 3017 3018 3019 3019 3019 3020 3020 3021 3021 3022 3022 3023 3023 3024 3024 3024 3025 3025 3026 3026 3027 3027 3028 3028 3028 3029 3029 3029 3029 3030 3030 3031 3031 3032 3034 3034 3034 3034 3034 3035 3036 3036 3037 3038 3038 3038 3038
3004 3005 3005 3006 3006 3007 3008 3008 3009 3009 3009 3010 3010 3011 3011 3012 3012 3013 3014 3014 3014 3015 3015 3016 3016 3017 3017 3018 3018 3019 3019 3019 3020 3020 3021 3021 3021 3022 3023 3023 3024 3024 3024 3025 3025 3026 3026 3026 3027 3027 3028 3028 3028 3029 3029 3030 3031 3032 3031 3032 3032 3033 3034 3034 3035 3035 3036 3036 3036
3003 3004 3004 3004 3005 3006 3006 3007 3007 3008 3008 3009 3009 3009 3010 3010 3011 3011 3012 3012 3012 3013 3013 3014 3014 3014 3015 3015 3016 3016 3016 3017 3017 3018 3018 3019 3019 3019 3020 3021 3021 3022 3022 3023 3023 3024 3024 3024 3024 3025 3025 3026 3026 3027 3027 3028 3029 3029 3029 3030 3031 3031 3032 3032 3033 3033 3034 3034 3034
3002 3002 3003 3003 3004 3004 3004 3005 3005 3006 3006 3007 3007 3008 3008 3008 3009 3009 3009 3010 3010 3011 3011 3011 3012 3012 3012 3013 3013 3014 3014 3014 3014 3015 3016 3016 3017 3017 3018 3018 3019 3019 3020 3021 3021 3021 3022 3022 3023 3023 3023 3024 3024 3025 3025 3026 3026 3027 3028 3028 3029 3029 3030 3030 3031 3031 3031 3031 3031
3001 3001 3001 3002 3002 3003 3003 3004 3004 3004 3005 3005 3005 3006 3006 3006 3007 3007 3007 3008 3008 3009 3009 3009 3009 3010 3010 3010 3011 3011 3011 3012 3012 3013 3014 3014 3014 3015 3015 3016 3017 3017 3018 3019 3019 3019 3019 3020 3020 3021 3021 3022 3022 3023 3023 3024 3024 3025 3026 3026 3027 3028 3028 3028 3029 3029 3029 3029 3029
3000 3000 3000 3000 3001 3001 3002 3002 3002 3003 3003 3003 3004 3004 3004 3004 3004 3005 3005 3006 3006 3006 3007 3007 3007 3008 3008 3008 3009 3009 3009 3010 3010 3011 3011 3012 3012 3013 3013 3014 3014 3015 3016 3016 3017 3017 3018 3018 3019 3019 3019 3020 3020 3021 3021 3022 3022 3023 3024 3024 3025 3026 3026 3026 3026 3026 3026 3027 3027
2999 2999 2999 2999 2999 3000 3000 3000 3001 3001 3001 3001 3002 3002 3002 3002 3003 3003 3003 3004 3004 3004 3005 3005 3005 3005 3006 3006 3006 3007 3007 3008 3008 3009 3009 3009 3010 3011 3011 3012 3012 3013 3014 3014 3014 3015 3015 3016 3017 3017 3017 3018 3018 3019 3019 3020 3020 3021 3021 3022 3023 3024 3024 3024 3024 3024 3025 3025 3025
2998 2998 2998 2998 2999 2999 2999 2999 3000 3000 3000 3000 3000 3000 3001 3001 3001 3001 3002 3002 3003 3003 3003 3003 3003 3003 3004 3004 3004 3004 3005 3005 3006 3006 3007 3007 3008 3008 3009 3009 3010 3011 3011 3012 3012 3013 3014 3014 3014 3015 3016 3016 3016 3017 3018 3018 3019 3019 3020 3020 3022 3022 3022 3023 3023 3023 3023 3023 3024
2997 2997 2997 2998 2998 2998 2998 2999 2999 2999 2999 2999 2999 2999 2999 3000 3000 3000 3001 3001 3001 3001 3001 3001 3001 3001 3001 3001 3002 3002 3002 3003 3003 3004 3004 3005 3005 3006 3007 3007 3008 3008 3009 3010 3010 3011 3011 3012 3013 3014 3014 3014 3015 3015 3016 3016 3017 3017 3018 3019 3020 3020 3020 3021 3021 3021 3021 3022 3022
2996 2996 2997 2997 2997 2997 2998 2998 2998 2998 2999 2999 2999 2999 2999 2999 2999 2999 3000 3000 3000 3000 3000 3000 2999 2999 2999 2999 2999 2999 3000 3000 3001 3001 3002 3002 3003 3004 3004 3005 3005 3006 3007 3008 3008 3009 3009 3010 3011 3012 3013 3013 3014 3014 3015 3015 3015 3016 3017 3017 3018 3018 3019 3019 3019 3019 3019 3019 3020
2995 2996 2996 2996 2996 2997 2997 2997 2997 2998 2998 2998 2998 2998 2998 2998 2998 2999 2999 2999 2999 2999 2999 2998 2998 2998 2997 2997 2997 2997 2997 2998 2999 2999 2999 3000 3001 3002 3003 3003 3004 3004 3005 3006 3006 3007 3008 3009 3009 3010 3011 3011 3012 3013 3013 3014 3014 3014 3015 3015 3016 3016 3016 3016 3017 3017 3017 3017 3017
2995 2995 2995 2995 2995 2996 2996 2996 2996 2997 2997 2997 2997 2997 2997 2997 2998 2998 2998 2998 2998 2997 2997 2997 2997 2996 2996 2996 2995 2995 2996 2996 2997 2997 2998 2999 2999 3000 3001 3001 3002 3002 3003 3004 3004 3005 3006 3007 3008 3008 3009 3009 3010 3011 3011 3012 3012 3012 3013 3013 3013 3014 3014 3014 3014 3015 3015 3015 3015